Regional Weather Roundup
Issued by NWS

Home | Current Version | Previous Version | Graphics & Text | Print | Product List | Glossary Off
Versions: 1 2 3 4 5 6 7 8 9 10 11 12 13 14 15 16 17 18 19 20 21 22 23 24 25 26 27 28 29 30 31 32 33 34 35 36 37 38 39 40 41 42 43 44 45 46 47 48 49 50

000
ASUS43 KTOP 282059
RWRKS

WEATHER ROUNDUP FOR KANSAS
NATIONAL WEATHER SERVICE GOODLAND KS
400 PM CDT TUE JUL 28 2015

NOTE:  "FAIR" INDICATES FEW OR NO CLOUDS BELOW 12,000 FEET WITH NO
SIGNIFICANT WEATHER AND/OR OBSTRUCTIONS TO VISIBILITY.

KSZ001>006-013>018-027>032-041>047-282200-
NORTHWEST KANSAS

CITY           SKY/WX    TMP DP  RH WIND       PRES   REMARKS
GOODLAND       SUNNY     85  46  25 N16G23    30.08S
HAYS           SUNNY     88  64  45 N17       29.93R
HILL CITY      PTSUNNY   87  55  33 N20G28    29.99R
RUSSELL        SUNNY     92  74  55 N18G24    29.88R HX 101
$$

KSZ061>065-074>080-084>089-282200-
SOUTHWEST KANSAS

CITY           SKY/WX    TMP DP  RH WIND       PRES   REMARKS
DODGE CITY     SUNNY     89  65  44 N16G23    29.96R
ELKHART          N/A     83  55  38 NE12        N/A
GARDEN CITY    MOSUNNY   83  57  41 NE18      30.00R
GREAT BEND     SUNNY     97  68  38 SW7       29.86S HX 101
LIBERAL        MOSUNNY   90  66  45 NE15G21   29.97S
$$

KSZ066>073-081>083-090>101-282200-
SOUTHEAST KANSAS

CITY           SKY/WX    TMP DP  RH WIND       PRES   REMARKS
CHANUTE        SUNNY     95  72  47 S17G26    29.91S HX 103
COFFEYVILLE    SUNNY     95  72  47 S15G23    29.92R HX 103
HUTCHINSON     LGT RAIN 103  66  30 SW21G28   29.85S HX 107
MEDICINE LODGE   N/A     98  69  38 S10       29.84F HX 104
NEWTON         SUNNY    100  70  37 S20G26    29.90S HX 107
PARSONS        SUNNY     94  75  54 S12       29.93S HX 105
WICHITA INTL   SUNNY     99  69  37 S23       29.86S HX 105
WICHITA JABRA  SUNNY     99  69  37 S20G29    29.87S HX 105
WINFIELD       SUNNY     97  73  45 S17G28    29.89S HX 107
$$

KSZ007>012-019>026-033>040-048>060-102>105-282200-
NORTHEAST KANSAS

CITY           SKY/WX    TMP DP  RH WIND       PRES   REMARKS
CONCORDIA      SUNNY     94  73  50 N8        29.85S HX 103
EMPORIA        SUNNY     99  69  37 S20G28    29.87S HX 105
LAWRENCE       SUNNY     96  71  44 S16       29.86F HX 103
MANHATTAN      SUNNY    100  72  40 S18       29.83S HX 109
OLATHE IND     SUNNY     95  72  47 S21       29.90S HX 103
OLATHE EXE     SUNNY     93  72  50 S17G23    29.89S HX 101
SALINA         SUNNY    102  69  34 S20G25    29.82S HX 109
TOPEKA BILLARD SUNNY     96  72  45 S18       29.85F HX 104
TOPEKA FORBES  SUNNY     98  70  40 S18G25    29.86F HX 105
$$


USA.gov is the U.S. government's official web portal to all federal, state and local government web resources and services.